| time (UTC) | temp F | wind direction | speed MPH | gust MPH | rain 1hr in | rain 24hr in | rain mn in | humidity % | barometer mb |
| 20260901004531 | 70 | 213 | 0.0 | 0.0 | 0.00 | 0.10 | 0.01 | 85 | 1017.3 |
| 20260901003034 | 70 | 213 | 0.0 | 0.0 | 0.00 | 0.10 | 0.01 | 85 | 1017.3 |
| 20260901001537 | 70 | 213 | 0.0 | 0.0 | 0.00 | 0.10 | 0.01 | 85 | 1017.2 |
| 20260901000029 | 70 | 212 | 0.0 | 0.0 | 0.00 | 0.10 | 0.01 | 85 | 1017.1 |
| 20260831234532 | 70 | 212 | 0.0 | 0.0 | 0.00 | 0.11 | 0.01 | 85 | 1017.2 |
| 20260831233029 | 71 | 212 | 0.0 | 0.0 | 0.00 | 0.11 | 0.01 | 85 | 1017.4 |
| 20260831231538 | 71 | 212 | 0.0 | 0.0 | 0.00 | 0.11 | 0.01 | 85 | 1017.5 |
| 20260831230128 | 71 | 212 | 0.0 | 0.0 | 0.00 | 0.11 | 0.01 | 84 | 1017.5 |
| 20260831224545 | 71 | 212 | 0.0 | 0.0 | 0.00 | 0.11 | 0.01 | 84 | 1017.5 |
| 20260831223025 | 71 | 212 | 0.0 | 0.0 | 0.00 | 0.11 | 0.01 | 84 | 1017.5 |
| 20260831221525 | 71 | 212 | 0.0 | 1.0 | 0.00 | 0.11 | 0.01 | 82 | 1017.7 |
| 20260831220023 | 72 | 205 | 0.0 | 0.0 | 0.00 | 0.11 | 0.01 | 82 | 1017.7 |
| 20260831214530 | 72 | 221 | 0.0 | 0.0 | 0.00 | 0.11 | 0.01 | 81 | 1017.6 |
| 20260831213023 | 73 | 200 | 0.0 | 0.0 | 0.00 | 0.11 | 0.01 | 79 | 1017.6 |
| 20260831211521 | 73 | 189 | 0.0 | 0.0 | 0.00 | 0.11 | 0.01 | 77 | 1017.6 |
| 20260831210021 | 74 | 202 | 0.0 | 0.0 | 0.00 | 0.11 | 0.01 | 76 | 1017.6 |
| 20260831204521 | 75 | 202 | 0.0 | 0.0 | 0.00 | 0.11 | 0.01 | 74 | 1017.6 |
| 20260831203032 | 75 | 202 | 0.0 | 0.0 | 0.00 | 0.11 | 0.01 | 74 | 1017.4 |
| 20260831201520 | 75 | 198 | 0.0 | 0.0 | 0.00 | 0.11 | 0.01 | 74 | 1017.6 |
| 20260831200021 | 76 | 198 | 0.0 | 0.0 | 0.00 | 0.11 | 0.01 | 71 | 1017.9 |
| 20260831194517 | 76 | 198 | 0.0 | 1.0 | 0.00 | 0.11 | 0.01 | 70 | 1018.0 |
| 20260831193018 | 77 | 198 | 0.0 | 0.0 | 0.00 | 0.11 | 0.01 | 68 | 1018.1 |
| 20260831191534 | 78 | 197 | 0.0 | 0.0 | 0.00 | 0.11 | 0.01 | 64 | 1018.3 |
| 20260831190015 | 78 | 197 | 0.0 | 0.0 | 0.00 | 0.11 | 0.01 | 69 | 1018.4 |
| 20260831184515 | 79 | 198 | 0.0 | 0.0 | 0.00 | 0.11 | 0.01 | 64 | 1018.6 |
| 20260831183025 | 79 | 197 | 0.0 | 0.0 | 0.00 | 0.11 | 0.01 | 63 | 1018.6 |
| 20260831181514 | 79 | 203 | 0.0 | 0.0 | 0.00 | 0.11 | 0.01 | 62 | 1018.6 |
| 20260831180012 | 79 | 200 | 0.0 | 0.0 | 0.00 | 0.11 | 0.01 | 65 | 1019.0 |
| 20260831174511 | 79 | 196 | 0.0 | 1.0 | 0.00 | 0.11 | 0.01 | 63 | 1019.2 |
| 20260831173011 | 79 | 219 | 0.0 | 0.0 | 0.00 | 0.11 | 0.01 | 65 | 1019.2 |
| 20260831171510 | 79 | 207 | 0.0 | 0.0 | 0.00 | 0.11 | 0.01 | 65 | 1019.0 |
| 20260831170007 | 79 | 167 | 0.0 | 0.0 | 0.00 | 0.11 | 0.01 | 64 | 1018.9 |
| 20260831164505 | 78 | 316 | 0.0 | 0.0 | 0.00 | 0.11 | 0.01 | 64 | 1019.2 |
| 20260831163002 | 76 | 236 | 0.0 | 0.0 | 0.00 | 0.11 | 0.01 | 66 | 1019.3 |
| 20260831161501 | 76 | 15 | 0.0 | 2.0 | 0.00 | 0.11 | 0.01 | 62 | 1019.3 |
| 20260831160059 | 76 | 237 | 0.0 | 0.0 | 0.00 | 0.11 | 0.01 | 69 | 1019.5 |
| 20260831154617 | 75 | 205 | 0.0 | 0.0 | 0.00 | 0.11 | 0.01 | 76 | 1019.6 |
| 20260831153051 | 74 | 224 | 0.0 | 0.0 | 0.00 | 0.11 | 0.01 | 78 | 1019.3 |
| 20260831151608 | 74 | 264 | 0.0 | 0.0 | 0.00 | 0.11 | 0.01 | 77 | 1019.5 |
| 20260831150050 | 74 | 235 | 0.0 | 0.0 | 0.01 | 0.11 | 0.01 | 78 | 1019.4 |
| 20260831144545 | 72 | 248 | 0.0 | 0.0 | 0.01 | 0.11 | 0.01 | 82 | 1019.6 |
| 20260831143041 | 71 | 347 | 0.0 | 0.0 | 0.01 | 0.11 | 0.01 | 83 | 1019.6 |
| 20260831141537 | 70 | 59 | 0.0 | 0.0 | 0.01 | 0.11 | 0.01 | 84 | 1019.4 |
| 20260831140036 | 70 | 5 | 0.0 | 0.0 | 0.00 | 0.10 | 0.00 | 85 | 1019.3 |
| 20260831134531 | 69 | 348 | 0.0 | 0.0 | 0.00 | 0.10 | 0.00 | 86 | 1019.2 |
| 20260831133034 | 68 | 108 | 0.0 | 0.0 | 0.00 | 0.10 | 0.00 | 88 | 1019.2 |
| 20260831131529 | 67 | 355 | 0.0 | 0.0 | 0.00 | 0.10 | 0.00 | 91 | 1019.2 |
| 20260831130036 | 67 | 345 | 0.0 | 0.0 | 0.00 | 0.10 | 0.00 | 92 | 1019.2 |
| 20260831124542 | 66 | 355 | 0.0 | 0.0 | 0.00 | 0.10 | 0.00 | 92 | 1019.2 |
| 20260831123025 | 65 | 355 | 0.0 | 0.0 | 0.00 | 0.10 | 0.00 | 92 | 1019.3 |
| 20260831121538 | 65 | 10 | 0.0 | 1.0 | 0.00 | 0.10 | 0.00 | 93 | 1019.2 |
| 20260831120021 | 65 | 38 | 0.0 | 0.0 | 0.00 | 0.10 | 0.00 | 93 | 1019.0 |
| 20260831114519 | 65 | 34 | 0.0 | 0.0 | 0.00 | 0.10 | 0.00 | 93 | 1018.9 |
| 20260831113017 | 64 | 346 | 0.0 | 0.0 | 0.00 | 0.10 | 0.00 | 93 | 1018.9 |
| 20260831111515 | 64 | 9 | 0.0 | 0.0 | 0.00 | 0.10 | 0.00 | 93 | 1018.8 |
| 20260831110020 | 64 | 355 | 0.0 | 0.0 | 0.00 | 0.10 | 0.00 | 93 | 1018.5 |
| 20260831104509 | 64 | 355 | 0.0 | 0.0 | 0.00 | 0.10 | 0.00 | 93 | 1018.4 |
| 20260831103009 | 64 | 355 | 0.0 | 0.0 | 0.00 | 0.10 | 0.00 | 93 | 1018.3 |
| 20260831101505 | 65 | 355 | 0.0 | 0.0 | 0.00 | 0.10 | 0.00 | 93 | 1018.1 |
| 20260831100004 | 65 | 355 | 0.0 | 0.0 | 0.00 | 0.10 | 0.00 | 93 | 1018.1 |
| 20260831094504 | 65 | 355 | 0.0 | 0.0 | 0.00 | 0.10 | 0.00 | 93 | 1018.1 |
| 20260831093000 | 66 | 29 | 0.0 | 0.0 | 0.00 | 0.10 | 0.00 | 93 | 1018.1 |
| 20260831091615 | 66 | 29 | 0.0 | 0.0 | 0.00 | 0.10 | 0.00 | 93 | 1018.2 |
| 20260831084601 | 66 | 29 | 0.0 | 0.0 | 0.00 | 0.10 | 0.00 | 93 | 1017.9 |
| 20260831083059 | 66 | 29 | 0.0 | 0.0 | 0.00 | 0.10 | 0.00 | 93 | 1017.9 |
| 20260831081600 | 66 | 29 | 0.0 | 0.0 | 0.00 | 0.10 | 0.00 | 93 | 1018.0 |
| 20260831080057 | 66 | 29 | 0.0 | 0.0 | 0.00 | 0.10 | 0.00 | 93 | 1017.8 |
| 20260831074555 | 66 | 29 | 0.0 | 0.0 | 0.00 | 0.10 | 0.00 | 93 | 1017.7 |
| 20260831073058 | 66 | 29 | 0.0 | 0.0 | 0.00 | 0.10 | 0.00 | 93 | 1017.8 |
| 20260831071610 | 66 | 29 | 0.0 | 0.0 | 0.00 | 0.10 | 0.00 | 93 | 1017.8 |
| 20260831070054 | 66 | 29 | 0.0 | 1.0 | 0.00 | 0.10 | 0.00 | 92 | 1018.0 |
| 20260831064552 | 66 | 29 | 0.0 | 0.0 | 0.00 | 0.10 | 0.00 | 92 | 1017.9 |
| 20260831063050 | 67 | 29 | 0.0 | 0.0 | 0.00 | 0.10 | 0.00 | 92 | 1017.9 |
| 20260831061549 | 67 | 29 | 0.0 | 0.0 | 0.00 | 0.10 | 0.00 | 92 | 1017.8 |
| 20260831060054 | 67 | 29 | 0.0 | 0.0 | 0.00 | 0.10 | 0.00 | 92 | 1018.0 |
| 20260831054546 | 67 | 29 | 0.0 | 0.0 | 0.00 | 0.10 | 0.00 | 92 | 1017.6 |
| 20260831053051 | 68 | 29 | 0.0 | 0.0 | 0.00 | 0.10 | 0.00 | 92 | 1017.7 |
| 20260831051544 | 68 | 29 | 0.0 | 0.0 | 0.00 | 0.10 | 0.00 | 92 | 1017.6 |
| 20260831050044 | 68 | 29 | 0.0 | 0.0 | 0.00 | 0.10 | 0.00 | 92 | 1017.6 |
| 20260831044548 | 68 | 29 | 0.0 | 0.0 | 0.00 | 0.10 | 0.00 | 92 | 1017.7 |
| 20260831043044 | 68 | 29 | 0.0 | 0.0 | 0.00 | 0.10 | 0.00 | 92 | 1017.4 |
| 20260831041542 | 69 | 29 | 0.0 | 0.0 | 0.00 | 0.10 | 0.00 | 92 | 1017.5 |
| 20260831040037 | 69 | 29 | 0.0 | 0.0 | 0.00 | 0.10 | 0.00 | 92 | 1017.5 |
| 20260831034535 | 69 | 29 | 0.0 | 0.0 | 0.01 | 0.10 | 0.10 | 92 | 1017.5 |
| 20260831033045 | 69 | 29 | 0.0 | 0.0 | 0.01 | 0.10 | 0.10 | 92 | 1017.6 |
| 20260831031536 | 69 | 29 | 0.0 | 0.0 | 0.01 | 0.10 | 0.10 | 91 | 1017.8 |
| 20260831030034 | 70 | 29 | 0.0 | 0.0 | 0.01 | 0.10 | 0.10 | 92 | 1018.1 |
| 20260831024534 | 71 | 28 | 0.0 | 0.0 | 0.01 | 0.09 | 0.09 | 92 | 1018.2 |
| 20260831023037 | 71 | 29 | 0.0 | 0.0 | 0.01 | 0.09 | 0.09 | 92 | 1018.1 |
| 20260831021537 | 71 | 29 | 0.0 | 0.0 | 0.02 | 0.09 | 0.09 | 91 | 1018.1 |
| 20260831020056 | 71 | 29 | 0.0 | 0.0 | 0.03 | 0.09 | 0.09 | 91 | 1018.0 |
| 20260831014531 | 71 | 29 | 0.0 | 0.0 | 0.03 | 0.08 | 0.08 | 91 | 1017.9 |
| 20260831013031 | 72 | 29 | 0.0 | 0.0 | 0.04 | 0.08 | 0.08 | 91 | 1017.9 |
| 20260831011529 | 72 | 29 | 0.0 | 0.0 | 0.04 | 0.07 | 0.07 | 91 | 1017.8 |
| 20260831010029 | 72 | 29 | 0.0 | 0.0 | 0.05 | 0.06 | 0.06 | 90 | 1017.7 |